, AK

(GMT )
Portage Glacier

Weather History for PATO - October, 2013

Change the Weather History Date:

Wednesday, October 9, 2013

  Actual Average Record
Temperature  
Mean Temperature 42 °F -  
Max Temperature 48 °F - - ()
Min Temperature 35 °F - - ()
Degree Days  
Heating Degree Days 23    
Moisture  
Dew Point 32 °F    
Average Humidity 68    
Maximum Humidity 100    
Minimum Humidity 50    
Precipitation  
Precipitation 0.00 in - - ()
Sea Level Pressure  
Sea Level Pressure 29.46 in    
Wind  
Wind Speed 10 mph (West)    
Max Wind Speed 14 mph    
Max Gust Speed 23 mph    
Visibility 10 miles    
Events      
T = Trace of Precipitation, MM = Missing Value Source: NWS Daily Summary

Daily Weather History Graph

Daily Weather History Graph

Search for Another Location

Airport or City:

Trip Planner

Search our weather history database for the weather conditions in past years. The results will help you decide how hot, cold, wet, or windy it might be!

Date:

Astronomy

Oct. 09, 2013 Rise Set
Actual Time 8:22 AM AKDT 7:01 PM AKDT
Civil Twilight 7:39 AM AKDT 7:43 PM AKDT
Nautical Twilight 6:50 AM AKDT 8:32 PM AKDT
Astronomical Twilight 5:59 AM AKDT 9:23 PM AKDT
Moon 2:37 PM AKDT (10/9) 9:36 PM AKDT (10/9)
Length of Visible Light 12h 04m
Length of Day
10h 38m
Waxing Crescent, 27% of the Moon is Illuminated
Oct 9
Waxing Crescent
Oct 11
First Quarter
Oct 18
Full
Oct 26
Last Quarter
Nov 3
New

Hourly Weather History & Observations

Time (AKDT) Temp. Windchill Dew Point Humidity Pressure Visibility Wind Dir Wind Speed Gust Speed Precip Events Conditions
12:53 AM 37.9 °F 32.1 °F 37.9 °F 100% 29.07 in 10.0 mi WNW 8.1 mph - N/A   Clear
1:53 AM 41.0 °F 33.9 °F 37.9 °F 89% 29.08 in 10.0 mi West 12.7 mph 18.4 mph N/A   Mostly Cloudy
2:53 AM 42.1 °F 35.7 °F 37.9 °F 85% 29.11 in 10.0 mi West 11.5 mph 20.7 mph N/A   Overcast
3:53 AM 42.1 °F 36.1 °F 37.0 °F 82% 29.15 in 10.0 mi West 10.4 mph 21.9 mph N/A   Overcast
4:53 AM 43.0 °F 36.4 °F 36.0 °F 76% 29.19 in 10.0 mi West 12.7 mph 23.0 mph N/A   Overcast
5:53 AM 43.0 °F 36.8 °F 35.1 °F 74% 29.24 in 10.0 mi West 11.5 mph 21.9 mph N/A   Mostly Cloudy
6:53 AM 43.0 °F 36.4 °F 34.0 °F 71% 29.28 in 10.0 mi West 12.7 mph 20.7 mph N/A   Scattered Clouds
7:53 AM 43.0 °F 37.7 °F 33.1 °F 68% 29.33 in 10.0 mi West 9.2 mph - N/A   Scattered Clouds
8:53 AM 43.0 °F 36.4 °F 33.1 °F 68% 29.37 in 10.0 mi West 12.7 mph 19.6 mph N/A   Clear
9:53 AM 44.1 °F 38.6 °F 32.0 °F 63% 29.43 in 10.0 mi West 10.4 mph 20.7 mph N/A   Partly Cloudy
10:53 AM 45.0 °F 39.3 °F 33.1 °F 63% 29.47 in 10.0 mi West 11.5 mph 20.7 mph N/A   Scattered Clouds
11:53 AM 46.0 °F 41.0 °F 32.0 °F 58% 29.52 in 10.0 mi West 10.4 mph 20.7 mph N/A   Overcast
12:53 PM 48.0 °F - 32.0 °F 54% 29.55 in 10.0 mi WNW 13.8 mph 23.0 mph N/A   Overcast
1:53 PM 46.0 °F 41.4 °F 30.9 °F 56% 29.57 in 10.0 mi West 9.2 mph 17.3 mph N/A   Scattered Clouds
2:53 PM 46.9 °F - 28.9 °F 50% 29.59 in 10.0 mi West 11.5 mph 20.7 mph N/A   Clear
3:53 PM 46.9 °F - 30.0 °F 52% 29.61 in 10.0 mi West 12.7 mph 21.9 mph N/A   Clear
4:53 PM 46.0 °F 41.4 °F 28.9 °F 51% 29.62 in 10.0 mi West 9.2 mph - N/A   Clear
5:53 PM 46.0 °F 41.9 °F 28.9 °F 51% 29.63 in 10.0 mi West 8.1 mph - N/A   Clear
6:53 PM 45.0 °F 40.6 °F 28.0 °F 52% 29.65 in 10.0 mi West 8.1 mph - N/A   Clear
7:53 PM 42.1 °F 38.4 °F 30.0 °F 62% 29.68 in 10.0 mi NW 5.8 mph - N/A   Clear
8:53 PM 39.0 °F 36.8 °F 30.0 °F 70% 29.70 in 10.0 mi Variable 3.5 mph - N/A   Clear
9:53 PM 36.0 °F 30.3 °F 30.0 °F 79% 29.71 in 10.0 mi West 6.9 mph - N/A   Clear
10:53 PM 37.0 °F 33.3 °F 28.9 °F 73% 29.72 in 10.0 mi NW 4.6 mph - N/A   Clear
11:53 PM 35.1 °F 30.1 °F 28.9 °F 78% 29.73 in 10.0 mi West 5.8 mph - N/A   Clear